Find Starlink 2373

NORAD ID: 47796 Int'l Des: 2021-018 Owner: SPXS Country: US Constellation: starlink operational
LEOCIRCULARSTARLINK_TYPE

リアルタイム位置

3D地球を読み込み中...

Starlink 2373について

説明を読み込み中...

次回通過

Passes for default location (London). Set your location on the main map for personalized predictions.

高度履歴

Loading altitude history...

軌道要素

1 47796U 21018K 26122.16670139 .00022274 00000-0 78174-3 0 9998
2 47796 53.1481 350.2412 0001528 89.8787 87.6227 15.29362048 5824
Epoch: May 2, 2026 • Age: 11 hours

現在のステータス

高度 482.4 km
速度 7.62 km/s
衛星直下点 -16.32°S, 93.98°E
打ち上げ日 Mar 11, 2021
運用期間 5.1 years
タイプ internet

技術仕様

分類 Payload
質量 260.00 kg
乾燥質量 248.00 kg
総質量 260.00 kg
長さ 0.20 m
直径 2.80 m
スパン 9.00 m
形状 Box + pan
製造者 SPXS
バスタイプ Starlink
フェーズステータス In Orbit
所有者/国 SPXS/US

Most Searched